Weather observations for the past three days for
Watsonville, Watsonville Municipal Airport
Imperial (Metric)
Date Time (pdt) Wind (mph) Vis. (mi.) Weather Sky Cond. Temperature (ºF) Relative Humidity Wind Chill (°F) Heat Index (°F) Pressure Precipitation (in)
Air Dwpt 6 hour altimeter (in) sea level (mb) 1 hr 3 hr 6 hr
Max. Min.
22 15:53 SW 8 10.00 Fair CLR 70 55.9 61% 29.87 1011.5
22 14:53 SW 12 10.00 Fair CLR 72 55.9 57% 29.88 1011.7
22 13:53 S 8 10.00 Fair CLR 71.1 55.9 59% 29.89 1012.1
22 12:53 SW 12 10.00 Fair CLR 69.1 55 61% 29.9 1012.4
22 11:53 SW 5 10.00 Fair CLR 70 57 64% 29.9 1012.4
22 10:53 SE 5 10.00 Overcast OVC007 63 55 63 54 76% 29.91 1012.9
22 09:53 S 6 10.00 Overcast OVC005 57.9 55 90% 29.92 1013.0
22 08:53 Calm 7.00 Overcast OVC003 55.9 55 97% 29.92 1013.0
22 07:53 S 3 3.00 Fog/Mist OVC003 55 54 96% 29.91 1012.9
22 06:53 Calm 2.50 Fog/Mist OVC002 54 54 100% 29.9 1012.5
22 05:53 Calm 6.00 Fog/Mist OVC003 54 54 100% 29.9 1012.3
22 04:53 S 5 6.00 Fog/Mist OVC003 54 54 57 54 100% 29.88 1011.9
22 03:53 SE 5 4.00 Fog/Mist OVC003 55 54 96% 29.89 1012.0
22 02:53 Vrbl 3 4.00 Fog/Mist OVC003 55 55 100% 29.89 1012.2
22 01:53 Calm 8.00 Overcast OVC004 55.9 54 93% 29.9 1012.3
22 00:53 Calm 8.00 Overcast OVC005 55.9 54 93% 29.91 1012.7
21 23:53 E 3 10.00 Overcast OVC005 55.9 54 93% 29.91 1012.6
21 22:53 SE 3 9.00 Overcast OVC005 55.9 54 70 55.9 93% 29.92 1013.0
21 21:53 Calm 10.00 Overcast OVC005 57 54 90% 29.92 1013.1
21 20:53 SE 7 10.00 Overcast OVC005 57 55 93% 29.92 1013.0
21 19:53 SE 8 10.00 Mostly Cloudy BKN008 57 54 90% 29.92 1013.2
21 18:53 SE 12 10.00 Fair CLR 62.1 55 78% 29.92 1013.1
21 17:53 S 9 10.00 Fair CLR 68 55.9 65% 29.92 1013.1
21 16:53 S 8 10.00 Fair CLR 69.1 55.9 73.9 61 63% 29.93 1013.3
21 15:53 SW 9 10.00 Fair CLR 71.1 55.9 59% 29.94 1014.0
21 14:53 S 6 10.00 Fair CLR 72 57 59% 29.96 1014.3
21 13:53 S 9 10.00 Fair CLR 71.1 55.9 59% 29.98 1014.9
21 12:53 Vrbl 5 10.00 Fair CLR 66.9 55.9 68% 29.99 1015.6
21 11:53 S 7 10.00 Overcast OVC011 64 55.9 75% 30 1016.0
21 10:53 Vrbl 5 10.00 Overcast OVC008 61 55.9 61 55.9 84% 30.02 1016.3
21 09:53 Calm 10.00 Overcast OVC007 60.1 55 84% 30.02 1016.4
21 08:53 Calm 10.00 Overcast OVC005 57.9 55 90% 30.02 1016.5
21 07:53 Calm 10.00 Overcast OVC004 57.9 55.9 93% 30.01 1016.3
21 06:53 Calm 4.00 Fog/Mist OVC004 57 55.9 96% 30 1015.9
21 05:53 Calm 6.00 Fog/Mist OVC003 55.9 55 97% 29.99 1015.6
21 04:53 Calm 10.00 Overcast OVC004 55.9 55 57.9 55.9 97% 29.99 1015.6
21 03:53 Calm 10.00 Overcast OVC004 57 55 93% 29.99 1015.4
21 02:53 SE 5 5.00 Fog/Mist OVC003 57 55.9 96% 29.99 1015.6
21 01:53 E 7 10.00 Overcast OVC007 57.9 55 90% 30 1015.7
21 00:53 E 6 10.00 Overcast OVC006 57 55 93% 30.01 1016.2
20 23:53 E 5 10.00 Overcast OVC006 57.9 55 90% 30.01 1016.2
20 22:53 E 6 10.00 Overcast OVC006 57 55 69.1 57 93% 30.01 1016.2
20 21:53 SE 8 10.00 Overcast OVC007 57 55 93% 30.01 1016.1
20 20:53 SE 7 10.00 Fair CLR 57.9 55 90% 30 1015.8
20 19:53 S 9 10.00 Fair CLR 60.1 55 84% 29.99 1015.4
20 18:53 S 10 10.00 Fair CLR 64.9 55.9 73% 29.97 1014.8
20 17:53 S 8 10.00 Fair CLR 66.9 55.9 68% 29.96 1014.5
20 16:53 S 9 10.00 Fair CLR 69.1 55.9 72 63 63% 29.96 1014.5
20 15:53 S 9 10.00 Fair CLR 70 55.9 61% 29.97 1014.9
20 14:53 S 9 10.00 Fair CLR 69.1 55.9 63% 29.99 1015.4
20 13:53 SW 8 10.00 Fair CLR 66.9 57 71% 29.99 1015.6
20 12:53 SW 8 10.00 Mostly Cloudy BKN011 66 57 73% 30 1015.8
20 11:53 S 8 10.00 Mostly Cloudy BKN008 64.9 57 76% 30 1015.9
20 10:53 SE 6 10.00 Overcast OVC009 63 57 63 55.9 81% 30 1015.8
20 09:53 Vrbl 3 10.00 Overcast OVC006 61 55.9 84% 30 1015.7
20 08:53 Calm 9.00 Overcast OVC003 59 55.9 90% 30 1015.7
20 07:53 E 5 2.00 Fog/Mist OVC003 57 55.9 96% 29.99 1015.4
20 06:53 E 3 4.00 Fog/Mist OVC003 57 55.9 96% 29.97 1014.8
20 05:53 SE 6 9.00 Overcast OVC004 55.9 55 97% 29.96 1014.5
20 04:53 NE 3 8.00 Overcast OVC004 57.9 55.9 59 55.9 93% 29.95 1014.1
20 03:53 E 5 9.00 Overcast OVC005 57 55.9 96% 29.95 1014.1
20 02:53 E 3 9.00 Overcast OVC006 57 55 93% 29.95 1014.2
20 01:53 SE 5 10.00 Fair CLR 57 54 90% 29.96 1014.5
20 00:53 E 6 10.00 Fair CLR 57 55 93% 29.97 1014.8
19 23:53 SE 5 10.00 Fair CLR 57.9 55 90% 29.98 1015.0
19 22:53 SE 5 10.00 Fair CLR 59 55 72 59 87% 29.98 1015.1
19 21:53 S 5 10.00 Fair CLR 60.1 55 84% 29.98 1015.1
19 20:53 S 7 10.00 Fair CLR 61 55 81% 29.97 1014.7
19 19:53 S 7 10.00 Fair CLR 64.9 55.9 73% 29.95 1014.2
19 18:53 S 5 10.00 Fair CLR 68 55.9 65% 29.94 1013.7
19 17:53 SW 9 10.00 Fair CLR 69.1 57 66% 29.93 1013.4
19 16:53 S 7 10.00 Fair CLR 71.1 55.9 80.1 69.1 59% 29.94 1013.8
Date Time (pdt) Wind (mph) Vis. (mi.) Weather Sky Cond. Air Dwpt Max. Min. Relative Humidity Wind Chill (°F) Heat Index (°F) altimeter (in) sea level (mb) 1 hr 3 hr 6 hr
6 hour
Temperature (ºF) Pressure Precipitation (in)